Tracking 29799 objects as of 10-Oct-2024
HD Live streaming from Space Station
objects crossing your sky now

STARLINK-32436

Track STARLINK-32436 now!
10-day predictions


NORAD ID: 61215
Int'l Code: 2024-171R
Perigee: 418.0 km
Apogee: 419.1 km
Inclination: 53.2 °
Period: 92.8 minutes
Semi major axis: 6789 km
RCS: Unknown
Launch date: September 20, 2024
Source: United States (US)
Launch site: AIR FORCE WESTERN TEST RANGE (AFWTR)
Your satellite tracking list
Your tracking list is empty




NASA's NSSDC Master Catalog

Two Line Element Set (TLE):
1 61215U 24171R   24284.58334491 -.01326731  00000-0 -24174-1 0  9991
2 61215  53.1598 197.7556 0000787  84.4899 342.1460 15.51821647  4400
Source of the keplerian elements: AFSPC